Wind_Speed
7 6 5 4 3 3 4 4 4 4 4 3 3 2 3 3 3 3 3 3 2 3 2 2 2 3 4 5 4 4 4 4 3 3 2 2 2 2 3 2 3 3 3
7 6 5 4 3 3 3 4 4 4 3 3 3 3 3 2 3 2 3 3 2 2 2 2 2 3 4 4 4 4 5 4 3 4 4 3 2 3 3 3 4 3 3
7 6 4 4 3 3 3 3 3 4 3 3 3 3 3 3 3 2 2 2 2 2 2 2 2 2 2 3 3 4 4 3 4 4 4 4 3 3 3 3 4 4 4
8 7 6 5 4 4 4 4 3 3 3 3 4 3 3 3 3 3 2 2 2 2 2 2 2 2 2 3 3 3 3 3 4 5 5 5 4 4 4 4 4 4 4
8 8 7 5 4 3 4 4 4 4 4 4 3 3 3 3 3 3 3 2 2 2 2 3 3 3 3 3 4 4 4 5 5 5 6 6 6 5 5 5 4 4 4
9 9 8 6 5 5 5 5 5 5 4 3 3 3 3 3 3 2 2 2 2 2 3 3 3 3 3 3 4 4 5 5 5 6 7 7 7 6 6 5 5 5 5
10 10 9 8 7 6 5 5 5 5 4 4 3 3 3 2 2 1 1 1 1 2 2 3 3 4 4 4 5 5 6 6 6 6 7 7 8 8 7 6 5 5 5
11 11 10 9 8 7 7 6 6 5 6 5 4 3 3 2 1 0 1 1 2 2 3 3 4 4 4 5 6 7 6 6 7 7 7 7 8 8 8 7 6 6 6
12 11 11 11 10 9 8 7 6 6 6 5 4 3 2 1 1 0 2 2 2 4 4 4 5 5 5 6 6 7 7 7 8 7 7 7 8 8 8 8 7 7 7
12 12 12 11 10 9 8 8 7 7 6 5 4 4 3 2 1 1 2 2 2 3 4 4 5 5 5 5 6 7 7 8 9 8 8 8 9 9 8 9 8 9 9
12 12 12 11 10 10 9 8 7 7 6 5 4 3 2 2 2 2 2 3 3 4 4 4 4 4 5 6 7 7 7 8 9 9 9 10 10 10 10 10 9 9 9
11 11 11 11 10 9 9 8 7 7 6 5 4 4 3 3 3 2 2 2 3 4 4 4 5 5 6 6 7 7 8 8 8 9 9 10 11 10 10 10 11 10 9
12 12 11 10 10 9 8 8 7 7 6 5 5 4 3 3 3 2 2 2 2 3 5 5 6 6 6 7 7 8 8 9 9 10 10 10 10 11 11 11 11 11 10
12 12 11 11 10 9 9 8 7 6 6 6 5 5 4 4 4 2 2 1 2 3 4 5 6 7 7 8 8 9 9 10 10 10 11 10 10 10 10 9 10 10 10
11 11 11 10 9 9 9 8 8 7 7 7 6 6 6 5 5 3 2 2 2 3 5 6 6 7 8 8 9 10 10 10 10 10 10 10 10 10 10 10 10 10 10
10 10 10 10 10 9 9 8 7 7 7 7 6 5 6 5 5 4 3 2 3 4 6 6 6 7 8 9 9 8 8 9 10 9 9 10 10 9 10 10 10 10 10
9 9 9 9 9 9 8 8 8 7 7 7 6 5 5 5 5 5 4 3 4 5 6 5 6 7 7 8 8 7 7 7 7 7 8 9 10 9 9 9 10 10 10
8 8 8 8 8 8 8 8 8 8 7 7 7 6 5 5 6 6 4 4 4 6 6 6 6 6 7 7 6 6 5 5 5 6 7 8 9 9 9 9 9 9 9
7 7 6 7 7 7 7 7 7 7 7 7 7 6 6 6 6 7 7 6 5 5 5 5 5 6 6 6 5 5 4 4 5 6 7 8 9 9 10 10 10 10 10
7 6 6 6 6 6 6 7 7 7 6 7 7 8 8 8 8 8 7 6 5 5 5 6 6 6 5 6 6 5 4 4 6 6 7 8 9 9 10 11 11 11 11
6 6 6 6 5 5 6 7 7 7 7 7 8 8 8 8 8 8 7 7 7 6 7 7 7 7 6 6 6 6 5 5 6 7 7 8 9 9 10 10 10 11 11
6 6 6 6 6 5 6 7 7 8 8 8 8 9 8 9 8 8 8 7 7 8 8 7 6 7 7 6 6 6 6 5 5 6 7 7 7 8 9 8 9 10 10
5 5 5 6 6 6 6 7 8 8 8 8 8 8 9 9 9 9 8 9 9 9 9 8 8 8 8 8 7 7 7 6 6 6 7 8 8 8 9 8 9 10 11
5 4 5 6 6 6 6 7 8 8 8 8 9 9 9 10 10 9 10 10 10 10 9 9 9 9 9 9 8 8 8 7 7 8 8 9 9 10 11 11 10 10 10
5 5 5 6 6 6 7 7 8 8 8 9 9 9 9 10 11 11 11 12 11 11 11 10 9 10 10 10 9 9 9 10 9 9 10 10 11 12 12 11 11 11 11
6 6 6 6 6 7 7 8 8 8 9 10 10 10 10 11 12 12 13 13 13 13 12 11 10 10 10 10 10 10 11 11 11 11 11 11 12 12 13 12 12 12 13
Wind_Direction
63 63 63 71 86 110 122 133 143 149 145 134 121 124 113 109 115 112 110 113 115 119 133 140 157 158 171 185 194 194 196 199 209 211 200 215 219 220 223 221 224 225 225
56 57 61 68 84 103 119 132 146 152 149 141 120 121 115 108 117 116 113 116 118 130 136 131 137 140 160 177 185 189 197 200 216 211 204 214 219 227 215 205 220 219 223
46 48 61 65 76 98 124 126 144 154 155 149 131 122 126 130 128 127 124 135 136 144 161 157 150 155 172 185 193 194 200 202 214 218 219 223 229 233 226 217 212 205 221
46 52 65 70 70 76 89 106 122 127 139 138 130 125 125 126 126 130 143 159 167 173 185 187 190 202 201 212 211 209 215 229 231 230 228 227 229 232 234 226 218 223 226
51 52 57 61 67 76 82 92 102 110 117 125 125 123 118 121 132 140 151 168 184 196 209 213 212 215 221 228 230 231 232 241 240 236 230 231 236 237 234 228 229 231 223
50 50 51 57 68 78 80 83 95 98 100 102 115 111 106 110 128 133 140 169 194 207 217 224 226 226 229 233 232 231 230 235 239 240 240 239 241 236 234 232 233 238 235
52 51 51 61 71 79 83 86 90 90 92 101 103 95 96 112 124 125 123 187 219 226 228 235 239 239 242 244 243 241 241 239 245 246 244 242 244 244 236 237 237 242 238
52 52 53 59 67 79 79 84 93 88 93 101 105 96 92 98 141 227 282 264 250 257 256 247 240 249 252 249 247 244 245 243 246 246 245 239 238 240 241 240 241 243 239
51 54 58 63 70 75 78 79 82 82 83 88 87 82 76 86 107 265 278 285 271 268 265 256 253 254 253 249 245 246 244 246 246 240 241 241 239 239 241 243 245 244 243
52 54 56 62 69 73 78 78 78 77 78 77 67 58 57 45 37 357 319 310 286 270 269 262 254 250 249 251 249 249 249 247 244 240 243 245 240 236 238 240 246 246 244
53 55 58 62 69 74 75 78 77 74 73 70 61 53 50 35 3 339 317 306 291 279 276 270 262 254 256 256 254 252 250 249 248 248 249 244 240 239 239 242 245 245 245
52 53 58 62 68 73 74 76 72 69 69 62 54 44 29 10 358 333 318 300 282 277 275 273 268 264 263 260 256 253 256 257 255 257 254 247 242 241 240 241 241 243 243
51 52 57 61 65 67 67 69 66 61 60 52 46 41 25 7 8 2 342 318 277 275 274 276 267 272 269 263 262 263 265 259 260 260 255 249 247 244 242 243 243 242 242
52 51 54 59 64 68 66 65 66 61 56 53 50 47 36 21 23 20 343 297 269 277 278 282 279 276 273 271 270 270 267 260 262 259 253 249 249 245 242 243 243 240 240
53 54 57 60 65 67 64 64 61 54 54 51 47 44 36 25 20 18 351 313 289 288 290 292 287 280 276 272 272 275 268 263 259 254 250 249 249 247 242 240 241 241 237
52 55 60 61 62 62 62 64 59 52 51 48 45 38 31 19 10 9 358 339 316 305 300 298 294 288 279 272 281 283 276 263 254 251 250 248 246 244 239 236 239 237 234
47 47 53 54 53 57 60 58 50 49 52 44 34 27 19 11 3 352 342 333 327 317 306 298 294 290 289 287 289 284 278 269 256 247 242 241 240 238 235 235 234 232 233
44 45 47 50 50 54 54 53 47 42 41 35 29 23 16 3 358 350 342 330 321 318 316 313 309 298 297 294 297 293 283 276 258 240 234 234 238 237 234 231 230 231 236
42 44 46 44 45 48 48 45 39 36 33 29 24 19 9 2 357 351 347 340 330 328 330 320 316 309 307 307 311 302 280 270 258 244 240 236 238 236 232 234 237 234 239
33 38 41 38 37 38 38 32 25 22 17 14 12 13 11 7 1 352 345 341 339 331 325 320 318 319 319 311 303 298 287 276 263 254 250 245 243 240 238 240 244 244 241
35 29 26 24 24 24 21 17 14 11 8 3 360 2 2 359 354 348 342 334 328 325 323 320 319 316 316 309 295 290 284 275 265 257 257 252 247 246 244 243 246 244 241
35 34 27 19 16 14 9 4 0 1 358 357 355 351 352 350 347 342 337 330 322 319 318 318 319 310 307 305 303 291 280 272 265 259 260 256 253 248 246 249 250 243 241
22 24 15 9 8 3 354 349 349 345 341 341 342 342 342 343 344 343 335 335 330 321 321 316 309 303 297 291 291 290 285 275 270 269 264 259 254 255 257 261 258 250 249
359 2 359 3 358 351 348 343 338 337 336 335 338 336 339 343 342 341 339 334 329 324 318 312 308 304 298 289 280 277 277 274 272 267 263 257 253 256 256 256 257 258 257
341 337 337 346 344 338 335 332 327 329 331 330 330 330 332 335 336 335 333 330 325 321 318 313 306 303 300 295 285 279 275 272 273 269 263 257 256 256 253 252 252 255 258
320 319 323 330 326 324 322 323 324 325 325 324 320 322 324 326 327 326 324 322 321 318 316 312 304 302 301 298 291 286 281 276 272 269 265 259 257 254 251 252 253 255 257
Height
5861 5861 5861 5861 5861 5861 5862 5863 5863 5864 5865 5865 5866 5865 5867 5868 5869 5870 5871 5872 5873 5873 5874 5873 5872 5871 5872 5875 5878 5879 5881 5882 5883 5884 5884 5885 5885 5886 5886 5887 5888 5888 5889
5861 5861 5861 5861 5861 5861 5862 5862 5863 5864 5865 5865 5866 5866 5867 5868 5869 5870 5871 5872 5873 5873 5874 5874 5874 5873 5874 5876 5878 5879 5881 5882 5883 5884 5884 5885 5885 5886 5887 5887 5888 5888 5889
5862 5861 5861 5861 5861 5861 5861 5862 5862 5863 5864 5865 5866 5867 5867 5868 5869 5870 5871 5872 5873 5874 5874 5875 5875 5875 5876 5877 5878 5879 5881 5882 5883 5883 5884 5885 5886 5886 5887 5887 5888 5888 5889
5863 5862 5861 5861 5861 5861 5861 5862 5862 5863 5864 5865 5865 5866 5867 5868 5869 5870 5871 5872 5873 5873 5874 5875 5875 5876 5877 5877 5878 5879 5880 5881 5882 5883 5884 5885 5886 5886 5886 5887 5888 5888 5888
5863 5862 5861 5861 5861 5861 5861 5862 5862 5863 5864 5865 5865 5866 5867 5868 5869 5870 5871 5872 5873 5873 5874 5875 5875 5876 5877 5877 5878 5879 5880 5881 5881 5882 5883 5884 5885 5886 5886 5887 5887 5888 5888
5864 5863 5862 5861 5860 5860 5861 5861 5862 5863 5863 5864 5865 5866 5867 5868 5869 5870 5871 5871 5872 5873 5873 5874 5875 5875 5876 5877 5877 5878 5879 5880 5880 5881 5882 5883 5884 5885 5885 5886 5886 5887 5887
5864 5863 5862 5860 5860 5860 5861 5861 5862 5862 5863 5864 5865 5866 5867 5868 5869 5869 5870 5871 5871 5872 5873 5873 5874 5874 5875 5876 5876 5877 5877 5878 5879 5880 5881 5882 5883 5883 5884 5885 5886 5886 5886
5865 5864 5862 5860 5859 5860 5861 5862 5863 5863 5863 5864 5865 5866 5867 5868 5868 5869 5870 5870 5870 5871 5872 5872 5873 5873 5874 5875 5875 5875 5876 5877 5878 5879 5879 5880 5881 5882 5883 5883 5884 5885 5886
5867 5866 5864 5862 5861 5861 5862 5863 5864 5864 5864 5865 5865 5866 5867 5867 5868 5868 5868 5869 5869 5870 5871 5871 5871 5872 5873 5873 5874 5874 5874 5875 5876 5877 5877 5878 5879 5880 5881 5882 5883 5884 5885
5869 5867 5866 5864 5864 5863 5863 5865 5865 5865 5865 5866 5866 5866 5867 5867 5867 5867 5868 5868 5868 5868 5869 5869 5870 5870 5871 5871 5871 5872 5873 5873 5874 5875 5876 5876 5877 5878 5879 5880 5881 5882 5883
5871 5869 5868 5867 5866 5866 5866 5866 5866 5866 5866 5866 5866 5866 5866 5866 5866 5866 5867 5867 5867 5867 5867 5868 5868 5869 5869 5869 5869 5869 5870 5871 5872 5873 5874 5874 5875 5876 5877 5878 5879 5880 5880
5872 5871 5870 5869 5868 5868 5867 5867 5867 5867 5867 5867 5867 5867 5866 5865 5865 5865 5865 5865 5865 5866 5866 5866 5866 5867 5867 5867 5867 5867 5868 5869 5869 5870 5871 5872 5873 5874 5875 5876 5877 5877 5878
5874 5872 5871 5870 5869 5869 5869 5869 5869 5868 5868 5868 5867 5867 5866 5865 5864 5863 5863 5864 5864 5864 5864 5864 5864 5865 5865 5865 5865 5865 5866 5866 5867 5868 5868 5869 5870 5871 5872 5873 5874 5875 5876
5875 5874 5872 5871 5871 5871 5870 5870 5870 5870 5869 5869 5868 5867 5866 5865 5863 5862 5862 5863 5863 5863 5863 5863 5863 5863 5863 5863 5863 5863 5863 5863 5864 5865 5866 5866 5867 5868 5870 5871 5871 5872 5873
5877 5875 5874 5873 5873 5872 5872 5872 5872 5871 5870 5870 5869 5868 5867 5865 5864 5863 5862 5862 5862 5862 5861 5861 5861 5860 5860 5861 5861 5860 5860 5860 5861 5861 5862 5864 5865 5866 5867 5868 5869 5869 5870
5879 5878 5876 5875 5875 5874 5874 5874 5873 5872 5871 5870 5869 5868 5867 5866 5865 5863 5862 5862 5862 5861 5860 5859 5859 5858 5857 5858 5857 5857 5857 5857 5857 5858 5859 5861 5862 5863 5864 5865 5866 5867 5868
5881 5879 5878 5877 5876 5876 5875 5875 5874 5873 5872 5871 5870 5869 5868 5867 5866 5865 5863 5862 5861 5860 5859 5857 5856 5856 5855 5855 5855 5855 5854 5854 5854 5856 5857 5859 5860 5861 5863 5863 5864 5865 5866
5882 5881 5880 5879 5878 5877 5877 5876 5875 5874 5873 5872 5871 5870 5869 5867 5866 5865 5863 5862 5860 5859 5857 5856 5855 5855 5855 5854 5853 5853 5852 5852 5852 5853 5855 5857 5859 5860 5861 5862 5863 5863 5864
5882 5881 5880 5880 5879 5878 5878 5877 5876 5875 5874 5873 5871 5870 5869 5867 5866 5865 5863 5862 5860 5859 5857 5856 5855 5854 5854 5853 5852 5852 5851 5851 5852 5853 5854 5856 5857 5858 5859 5860 5861 5862 5862
5883 5882 5881 5880 5880 5879 5878 5878 5877 5876 5875 5873 5872 5870 5869 5867 5866 5864 5863 5862 5860 5859 5857 5856 5855 5854 5853 5852 5852 5851 5851 5851 5851 5852 5853 5854 5855 5856 5857 5858 5859 5860 5860
5883 5883 5882 5881 5880 5880 5879 5878 5877 5876 5875 5873 5872 5870 5869 5867 5866 5864 5863 5861 5860 5858 5857 5855 5854 5853 5852 5852 5852 5851 5850 5850 5851 5851 5852 5853 5854 5854 5855 5856 5857 5857 5858
5884 5883 5882 5881 5881 5880 5879 5878 5877 5876 5874 5873 5872 5870 5868 5867 5865 5864 5862 5861 5859 5858 5856 5854 5853 5853 5852 5851 5851 5850 5850 5850 5849 5850 5850 5851 5852 5852 5853 5854 5854 5855 5855
5884 5883 5882 5881 5880 5880 5879 5877 5876 5875 5874 5872 5871 5869 5868 5866 5865 5863 5861 5860 5858 5857 5855 5853 5852 5851 5850 5850 5849 5849 5848 5848 5848 5849 5849 5849 5850 5851 5851 5852 5852 5853 5853
5884 5883 5882 5881 5880 5879 5878 5877 5876 5874 5873 5871 5870 5868 5867 5865 5863 5862 5860 5858 5857 5855 5853 5852 5851 5849 5849 5848 5847 5847 5847 5847 5847 5846 5847 5846 5847 5848 5848 5849 5850 5850 5851
5883 5882 5881 5880 5879 5878 5877 5876 5875 5873 5872 5870 5869 5867 5865 5864 5862 5860 5859 5857 5855 5853 5851 5850 5848 5847 5847 5846 5845 5845 5845 5844 5844 5844 5844 5844 5844 5845 5845 5846 5847 5847 5847
5882 5881 5880 5879 5878 5877 5875 5874 5873 5872 5870 5869 5867 5866 5864 5862 5860 5859 5857 5854 5852 5851 5849 5848 5846 5845 5844 5844 5843 5842 5842 5842 5841 5841 5841 5841 5841 5842 5842 5842 5843 5843 5844